Back to catalog

STARLINK-1554

AliveCommunicationsVLEO
NORAD 46055·PAYLOAD·🇺🇸 United States

Launched Aug 7, 2020 from Cape Canaveral Space Force Station

Loading…

Next Passes (next 24 hours)

TLE

FreshSource: CelesTrak SupGP

Epoch: Sep 14, 2026, 13:42 UTC

1 46055C 20055AE  26257.57131944  .00043311  00000+0  13931-2 0  2575
2 46055  53.1602 315.0299 0001309  74.7150  33.4914 15.31673792    14

Track STARLINK-1554 in real time with AllMySat

Download on the App Store